This is the latest recevied weather packets stored in our database for station/object W0AVQ. If no packets are shown the sender has not sent any weather packets the latest 10 day(s).
| Time | Temp. | Humidity | Pressure | Rain* | Wind** | Luminosity | Snow |
|---|---|---|---|---|---|---|---|
| 1777755066 | 16.67° C | 50% | 1019.8 hPa | 0 mm | - | 91 W/m² | - |
| 1777754762 | 16.67° C | 50% | 1019.8 hPa | 0 mm | - | 90 W/m² | - |
| 1777754460 | 16.11° C | 52% | 1019.9 hPa | 0 mm | - | 99 W/m² | - |
| 1777754157 | 16.67° C | 50% | 1019.8 hPa | 0 mm | - | 115 W/m² | - |
| 1777753854 | 16.67° C | 49% | 1019.7 hPa | 0 mm | - | 156 W/m² | - |
| 1777753550 | 16.67° C | 53% | 1019.5 hPa | 0 mm | - | 131 W/m² | - |
| 1777753248 | 17.22° C | 50% | 1019.7 hPa | 0 mm | - | 98 W/m² | - |
| 1777752944 | 17.22° C | 57% | 1019.8 hPa | 0 mm | - | 123 W/m² | - |
| 1777752641 | 16.67° C | 57% | 1019.7 hPa | 0 mm | - | 153 W/m² | - |
| 1777752337 | 16.67° C | 57% | 1019.8 hPa | 0 mm | - | 178 W/m² | - |
| 1777752035 | 17.22° C | 58% | 1019.7 hPa | 0 mm | - | 239 W/m² | - |
| 1777751732 | 17.22° C | 55% | 1019.7 hPa | 0 mm | - | 219 W/m² | - |
| 1777751428 | 16.67° C | 47% | 1019.8 hPa | 0 mm | - | 220 W/m² | - |
| 1777751125 | 17.22° C | 45% | 1019.6 hPa | 0 mm | - | 234 W/m² | - |
| 1777750821 | 16.67° C | 47% | 1019.5 hPa | 0 mm | - | 170 W/m² | - |
| 1777750519 | 17.22° C | 48% | 1019.4 hPa | 0 mm | - | 212 W/m² | - |
| 1777750215 | 17.78° C | 48% | 1019.7 hPa | 0 mm | - | 385 W/m² | - |
| 1777749910 | 17.78° C | 51% | 1019.7 hPa | 0 mm | - | 242 W/m² | - |
| 1777749609 | 17.78° C | 49% | 1019.5 hPa | 0 mm | - | 388 W/m² | - |
| 1777749305 | 17.78° C | 51% | 1019.7 hPa | 0 mm | - | 266 W/m² | - |
| 1777749003 | 16.67° C | 54% | 1019.4 hPa | 0 mm | - | 252 W/m² | - |
| 1777748700 | 16.67° C | 53% | 1019.7 hPa | 0 mm | - | 250 W/m² | - |
| 1777748396 | 16.11° C | 53% | 1019.7 hPa | 0 mm | - | 239 W/m² | - |
| 1777748092 | 16.11° C | 55% | 1019.6 hPa | 0 mm | - | 173 W/m² | - |
| 1777747789 | 16.11° C | 53% | 1019.5 hPa | 0 mm | - | 134 W/m² | - |
* Rain latest hour (hover to see other rain measurements)
** Current wind speed in m/s (hover to see current wind gust speed)